Location: Newark
(41.6500°N, 71.4833°W)
Time: 17:06:38
(UTC+00:00)

Vanguard 2 Rocket - All Passes

Search period start: 29 January 2020 00:00
Search period end: 08 February 2020 00:00
Orbit: 554 x 3326 km, 32.9° (Epoch: 28 January)

Date Brightness Start Highest point End Pass type
(mag) Time Alt. Az. Time Alt. Az. Time Alt. Az.
29 Jan - 07:51:19 10° S 07:53:16 13° SSE 07:55:16 10° SE visible
29 Jan - 10:01:37 10° SW 10:05:17 29° S 10:10:06 10° ESE visible
29 Jan - 12:13:20 10° WSW 12:17:54 28° S 12:24:41 10° SE daylight
29 Jan - 14:26:58 10° SW 14:31:27 16° SSW 14:37:18 10° SSE daylight
30 Jan - 09:02:58 10° SW 09:06:13 24° SSE 09:09:58 10° ESE visible
30 Jan - 11:14:31 10° WSW 11:18:31 29° S 11:24:11 10° SE visible
30 Jan - 13:27:18 10° WSW 13:31:37 18° SSW 13:37:30 10° SSE daylight
31 Jan - 08:04:18 10° SSW 08:07:10 19° SSE 08:10:06 10° ESE visible
31 Jan - 10:15:44 10° WSW 10:19:19 28° S 10:23:58 10° ESE visible
31 Jan - 12:28:02 10° WSW 12:32:01 20° SSW 12:37:28 10° SSE daylight
01 Feb - 07:05:40 10° SSW 07:08:04 15° SSE 07:10:21 10° SE night (unlit)
01 Feb - 09:16:53 10° SW 09:20:13 26° S 09:24:03 10° ESE visible
01 Feb - 11:29:00 10° WSW 11:32:37 22° S 11:37:26 10° SE visible
01 Feb - 13:44:19 10° SSW 13:45:47 11° SSW 13:47:23 10° S daylight
02 Feb - 06:07:16 10° S 06:08:54 12° SSE 06:10:24 10° SE night (unlit)
02 Feb - 08:17:55 10° SW 08:21:10 23° S 08:24:27 10° ESE visible
02 Feb - 10:30:02 10° WSW 10:33:22 23° S 10:37:33 10° SE visible
02 Feb - 12:43:41 10° SW 12:46:09 13° SSW 12:49:04 10° S daylight
03 Feb - 07:18:46 10° SW 07:22:05 21° S 07:25:05 10° ESE night (unlit)
03 Feb - 09:31:01 10° WSW 09:34:14 24° S 09:37:55 10° SE visible
03 Feb - 11:44:02 10° SW 11:46:43 15° SSW 11:49:57 10° SSE daylight
04 Feb - 06:19:27 10° SSW 06:22:56 18° SSE 06:25:51 10° ESE night (unlit)
04 Feb - 08:31:49 10° WSW 08:35:10 25° S 08:38:32 10° SE visible
04 Feb - 10:44:41 10° SW 10:47:26 17° SSW 10:50:41 10° SSE visible
05 Feb - 05:20:02 10° SSW 05:23:40 16° SSE 05:26:36 10° SE night (unlit)
05 Feb - 07:32:24 10° SW 07:36:07 25° S 07:39:23 10° ESE night (unlit)
05 Feb - 09:45:22 10° WSW 09:48:17 19° S 09:51:28 10° SE visible
06 Feb - 04:20:40 10° SSW 04:24:14 14° SSE 04:27:08 10° SE night (unlit)
06 Feb - 06:32:42 10° SW 06:37:00 24° S 06:40:24 10° ESE night (unlit)
06 Feb - 08:45:58 10° WSW 08:49:12 23° S 08:52:24 10° SE visible
06 Feb - 11:00:45 10° SSW 11:01:28 10° SSW 11:02:13 10° S visible
07 Feb - 03:21:40 10° S 03:24:36 12° SSE 03:27:08 10° SE night (unlit)
07 Feb - 05:32:45 10° SW 05:37:47 23° S 05:41:28 10° ESE night (unlit)
07 Feb - 07:46:19 10° WSW 07:50:09 26° S 07:53:28 10° SE night (unlit)
07 Feb - 10:00:14 10° SW 10:02:16 14° SSW 10:04:24 10° SSE visible
